Time,TemperatureF,DewpointF,PressureIn,WindDirection,WindDirectionDegrees,WindSpeedMPH,WindSpeedGustMPH,Humidity,HourlyPrecipIn,Conditions,Clouds,dailyrainin,SoftwareType,DateUTC
2013-02-05 00:00:00,16.5,1.0,28.13,SW,225,2.0,4.0,50,0.00,,,0.00,meteohub,2013-02-05 05:00:00,
2013-02-05 00:01:00,16.5,1.0,28.13,West,270,2.0,4.0,50,0.00,,,0.00,meteohub,2013-02-05 05:01:00,
2013-02-05 00:07:00,16.5,1.0,28.14,West,270,2.0,2.0,50,0.00,,,0.00,meteohub,2013-02-05 05:07:00,
2013-02-05 00:12:00,16.5,1.0,28.13,North,0,2.0,3.0,50,0.00,,,0.00,meteohub,2013-02-05 05:12:00,
2013-02-05 00:17:00,16.5,1.0,28.13,NE,45,0.0,3.0,50,0.00,,,0.00,meteohub,2013-02-05 05:17:00,
2013-02-05 00:22:00,16.5,1.0,28.13,SW,225,1.0,3.0,50,0.00,,,0.00,meteohub,2013-02-05 05:22:00,
2013-02-05 00:27:00,16.5,1.0,28.13,South,180,1.0,2.0,50,0.00,,,0.00,meteohub,2013-02-05 05:27:00,
2013-02-05 00:32:00,16.5,1.6,28.13,North,0,2.0,2.0,51,0.00,,,0.00,meteohub,2013-02-05 05:32:00,
2013-02-05 00:37:00,16.5,1.6,28.13,West,270,1.0,2.0,51,0.00,,,0.00,meteohub,2013-02-05 05:37:00,
2013-02-05 00:42:00,16.5,1.6,28.13,South,180,2.0,2.0,51,0.00,,,0.00,meteohub,2013-02-05 05:42:00,
2013-02-05 00:47:00,16.5,1.6,28.14,NW,315,0.0,2.0,51,0.00,,,0.00,meteohub,2013-02-05 05:47:00,
2013-02-05 00:52:00,16.5,1.6,28.13,West,270,0.0,2.0,51,0.00,,,0.00,meteohub,2013-02-05 05:52:00,
2013-02-05 00:57:00,16.5,1.6,28.13,West,270,2.0,2.0,51,0.00,,,0.00,meteohub,2013-02-05 05:57:00,
2013-02-05 01:02:00,16.3,1.4,28.13,West,270,2.0,2.0,51,0.80,,,0.80,meteohub,2013-02-05 06:02:00,
2013-02-05 01:07:00,16.3,1.8,28.13,North,0,1.0,2.0,52,0.80,,,0.80,meteohub,2013-02-05 06:07:00,
2013-02-05 01:12:00,16.3,1.8,28.13,West,270,0.0,2.0,52,0.80,,,0.80,meteohub,2013-02-05 06:12:00,
2013-02-05 01:17:00,16.3,1.8,28.13,North,0,2.0,2.0,52,0.80,,,0.80,meteohub,2013-02-05 06:17:00,
2013-02-05 01:22:00,16.3,2.1,28.13,North,0,1.0,4.0,53,0.80,,,0.80,meteohub,2013-02-05 06:22:00,
2013-02-05 01:27:00,16.3,2.1,28.12,SW,225,2.0,4.0,53,0.80,,,0.80,meteohub,2013-02-05 06:27:00,
2013-02-05 01:33:00,16.3,2.7,28.13,NW,315,2.0,4.0,54,0.80,,,0.80,meteohub,2013-02-05 06:33:00,
2013-02-05 01:38:00,16.3,2.7,28.13,West,270,2.0,2.0,54,0.80,,,0.80,meteohub,2013-02-05 06:38:00,
2013-02-05 01:43:00,16.2,2.5,28.13,SW,225,0.0,2.0,54,0.80,,,0.80,meteohub,2013-02-05 06:43:00,
2013-02-05 01:48:00,16.2,2.8,28.13,North,0,2.0,2.0,55,0.80,,,0.80,meteohub,2013-02-05 06:48:00,
2013-02-05 01:53:00,16.2,2.8,28.13,NW,315,2.0,2.0,55,0.80,,,0.80,meteohub,2013-02-05 06:53:00,
2013-02-05 01:58:00,16.2,3.2,28.13,NW,315,2.0,2.0,56,0.80,,,0.80,meteohub,2013-02-05 06:58:00,
2013-02-05 02:03:00,16.2,3.6,28.13,North,0,2.0,2.0,57,0.00,,,0.80,meteohub,2013-02-05 07:03:00,
2013-02-05 02:08:00,16.0,3.4,28.13,NW,315,3.0,3.0,57,0.00,,,0.80,meteohub,2013-02-05 07:08:00,
2013-02-05 02:14:00,16.0,3.7,28.14,North,0,4.0,4.0,58,0.00,,,0.80,meteohub,2013-02-05 07:14:00,
2013-02-05 02:19:00,16.0,4.1,28.13,North,0,4.0,4.0,59,0.00,,,0.80,meteohub,2013-02-05 07:19:00,
2013-02-05 02:24:00,16.0,4.1,28.14,West,270,4.0,4.0,59,0.00,,,0.80,meteohub,2013-02-05 07:24:00,
2013-02-05 02:29:00,16.0,4.1,28.14,NW,315,4.0,4.0,59,0.00,,,0.80,meteohub,2013-02-05 07:29:00,
2013-02-05 02:34:00,15.8,4.5,28.13,West,270,3.0,5.0,60,0.00,,,0.80,meteohub,2013-02-05 07:34:00,
2013-02-05 02:39:00,15.8,4.5,28.13,NW,315,4.0,5.0,60,0.00,,,0.80,meteohub,2013-02-05 07:39:00,
2013-02-05 02:44:00,15.8,4.5,28.13,North,0,3.0,5.0,60,0.00,,,0.80,meteohub,2013-02-05 07:44:00,
2013-02-05 02:49:00,15.8,4.5,28.13,North,0,4.0,4.0,60,0.00,,,0.80,meteohub,2013-02-05 07:49:00,
2013-02-05 02:54:00,15.8,4.5,28.12,North,0,4.0,5.0,60,0.00,,,0.80,meteohub,2013-02-05 07:54:00,
2013-02-05 02:59:00,15.6,5.0,28.12,North,0,4.0,5.0,62,0.00,,,0.80,meteohub,2013-02-05 07:59:00,
2013-02-05 03:04:00,15.6,5.0,28.12,WNW,293,3.0,5.0,62,0.00,,,0.80,meteohub,2013-02-05 08:04:00,
2013-02-05 03:09:00,15.6,5.0,28.12,North,0,2.0,4.0,62,0.00,,,0.80,meteohub,2013-02-05 08:09:00,
2013-02-05 03:14:00,15.6,5.0,28.12,North,0,3.0,5.0,62,0.00,,,0.80,meteohub,2013-02-05 08:14:00,
2013-02-05 03:20:00,15.6,5.4,28.12,NW,315,2.0,5.0,63,0.00,,,0.80,meteohub,2013-02-05 08:20:00,
2013-02-05 03:25:00,15.4,5.2,28.12,North,0,4.0,5.0,63,0.00,,,0.80,meteohub,2013-02-05 08:25:00,
2013-02-05 03:30:00,15.4,5.2,28.13,NW,315,3.0,5.0,63,0.00,,,0.80,meteohub,2013-02-05 08:30:00,
2013-02-05 03:35:00,15.4,5.2,28.13,North,0,2.0,5.0,63,0.00,,,0.80,meteohub,2013-02-05 08:35:00,
2013-02-05 03:40:00,15.4,5.2,28.13,NE,45,1.0,5.0,63,0.00,,,0.80,meteohub,2013-02-05 08:40:00,
2013-02-05 03:45:00,15.4,5.2,28.13,NW,315,2.0,4.0,63,0.00,,,0.80,meteohub,2013-02-05 08:45:00,
2013-02-05 03:50:00,15.4,5.2,28.13,NE,45,1.0,2.0,63,0.00,,,0.80,meteohub,2013-02-05 08:50:00,
2013-02-05 03:55:00,15.4,5.2,28.13,North,0,1.0,2.0,63,0.00,,,0.80,meteohub,2013-02-05 08:55:00,
2013-02-05 04:00:00,15.4,5.2,28.13,NE,45,2.0,2.0,63,0.00,,,0.80,meteohub,2013-02-05 09:00:00,
2013-02-05 04:05:00,15.4,5.2,28.13,NW,315,1.0,2.0,63,0.00,,,0.80,meteohub,2013-02-05 09:05:00,
2013-02-05 04:10:00,15.4,5.2,28.13,North,0,2.0,3.0,63,0.00,,,0.80,meteohub,2013-02-05 09:10:00,
2013-02-05 04:16:00,15.4,5.2,28.13,North,0,2.0,3.0,63,0.00,,,0.80,meteohub,2013-02-05 09:16:00,
2013-02-05 04:21:00,15.4,5.2,28.13,NW,315,2.0,3.0,63,0.00,,,0.80,meteohub,2013-02-05 09:21:00,
2013-02-05 04:26:00,15.4,5.2,28.13,NW,315,2.0,4.0,63,0.00,,,0.80,meteohub,2013-02-05 09:26:00,
2013-02-05 04:31:00,15.4,5.2,28.14,North,0,2.0,4.0,63,0.00,,,0.80,meteohub,2013-02-05 09:31:00,
2013-02-05 04:36:00,15.4,5.2,28.14,NW,315,2.0,4.0,63,0.00,,,0.80,meteohub,2013-02-05 09:36:00,
2013-02-05 04:41:00,15.4,5.2,28.14,NW,315,2.0,3.0,63,0.00,,,0.80,meteohub,2013-02-05 09:41:00,
2013-02-05 04:46:00,15.4,5.2,28.13,NNW,338,2.0,3.0,63,0.00,,,0.80,meteohub,2013-02-05 09:46:00,
2013-02-05 04:51:00,15.4,5.2,28.14,NW,315,1.0,3.0,63,0.00,,,0.80,meteohub,2013-02-05 09:51:00,
2013-02-05 04:56:00,15.4,5.2,28.14,NW,315,2.0,3.0,63,0.00,,,0.80,meteohub,2013-02-05 09:56:00,
2013-02-05 05:01:00,15.4,5.2,28.14,North,0,2.0,3.0,63,0.00,,,0.80,meteohub,2013-02-05 10:01:00,
2013-02-05 05:06:00,15.4,5.2,28.13,North,0,2.0,2.0,63,0.00,,,0.80,meteohub,2013-02-05 10:06:00,
2013-02-05 05:12:00,15.4,5.2,28.13,NW,315,2.0,2.0,63,0.00,,,0.80,meteohub,2013-02-05 10:12:00,
2013-02-05 05:17:00,15.3,5.0,28.13,West,270,1.0,2.0,63,0.00,,,0.80,meteohub,2013-02-05 10:17:00,
2013-02-05 05:22:00,15.4,4.8,28.13,West,270,0.0,2.0,62,0.00,,,0.80,meteohub,2013-02-05 10:22:00,
2013-02-05 05:27:00,15.3,4.6,28.13,NW,315,0.0,2.0,62,0.00,,,0.80,meteohub,2013-02-05 10:27:00,
2013-02-05 05:32:00,15.3,4.6,28.14,NW,315,1.0,2.0,62,0.00,,,0.80,meteohub,2013-02-05 10:32:00,
2013-02-05 05:37:00,15.3,4.6,28.14,North,0,2.0,2.0,62,0.00,,,0.80,meteohub,2013-02-05 10:37:00,
2013-02-05 05:42:00,15.3,4.6,28.14,North,0,0.0,2.0,62,0.00,,,0.80,meteohub,2013-02-05 10:42:00,
2013-02-05 05:47:00,15.3,4.6,28.14,NE,45,2.0,2.0,62,0.00,,,0.80,meteohub,2013-02-05 10:47:00,
2013-02-05 05:52:00,15.4,4.8,28.13,East,90,2.0,2.0,62,0.00,,,0.80,meteohub,2013-02-05 10:52:00,
2013-02-05 05:57:00,15.4,4.8,28.13,East,90,2.0,2.0,62,0.00,,,0.80,meteohub,2013-02-05 10:57:00,
2013-02-05 06:02:00,15.4,4.8,28.13,East,90,2.0,2.0,62,0.00,,,0.80,meteohub,2013-02-05 11:02:00,
2013-02-05 06:07:00,15.4,4.8,28.14,NE,45,1.0,2.0,62,0.00,,,0.80,meteohub,2013-02-05 11:07:00,
2013-02-05 06:12:00,15.4,4.8,28.14,East,90,0.0,2.0,62,0.00,,,0.80,meteohub,2013-02-05 11:12:00,
2013-02-05 06:17:00,15.4,4.8,28.14,East,90,0.0,2.0,62,0.00,,,0.80,meteohub,2013-02-05 11:17:00,
2013-02-05 06:22:00,15.4,4.8,28.15,East,90,0.0,2.0,62,0.00,,,0.80,meteohub,2013-02-05 11:22:00,
2013-02-05 06:27:00,15.4,4.5,28.14,East,90,0.0,1.0,61,0.00,,,0.80,meteohub,2013-02-05 11:27:00,
2013-02-05 06:32:00,15.4,4.5,28.14,East,90,0.0,0.0,61,0.00,,,0.80,meteohub,2013-02-05 11:32:00,
2013-02-05 06:37:00,15.4,4.5,28.14,SW,225,0.0,0.0,61,0.00,,,0.80,meteohub,2013-02-05 11:37:00,
2013-02-05 06:42:00,15.4,4.5,28.15,South,180,1.0,2.0,61,0.00,,,0.80,meteohub,2013-02-05 11:42:00,
2013-02-05 06:47:00,15.4,4.8,28.15,SE,135,1.0,2.0,62,0.00,,,0.80,meteohub,2013-02-05 11:47:00,
2013-02-05 06:52:00,15.4,4.8,28.15,SE,135,2.0,2.0,62,0.00,,,0.80,meteohub,2013-02-05 11:52:00,
2013-02-05 06:57:00,15.4,4.8,28.16,SSE,158,2.0,2.0,62,0.00,,,0.80,meteohub,2013-02-05 11:57:00,
2013-02-05 07:02:00,15.4,4.8,28.16,SE,135,2.0,2.0,62,0.00,,,0.80,meteohub,2013-02-05 12:02:00,
2013-02-05 07:07:00,15.6,5.0,28.16,SE,135,2.0,2.0,62,0.00,,,0.80,meteohub,2013-02-05 12:07:00,
2013-02-05 07:12:00,15.6,5.0,28.16,South,180,2.0,2.0,62,0.00,,,0.80,meteohub,2013-02-05 12:12:00,
2013-02-05 07:17:00,15.6,5.4,28.16,East,90,2.0,2.0,63,0.00,,,0.80,meteohub,2013-02-05 12:17:00,
2013-02-05 07:22:00,15.6,5.4,28.17,SE,135,1.0,2.0,63,0.00,,,0.80,meteohub,2013-02-05 12:22:00,
2013-02-05 07:27:00,15.6,5.4,28.16,SE,135,1.0,2.0,63,0.00,,,0.80,meteohub,2013-02-05 12:27:00,
2013-02-05 07:32:00,15.6,5.4,28.16,SE,135,2.0,2.0,63,0.00,,,0.80,meteohub,2013-02-05 12:32:00,
2013-02-05 07:37:00,15.6,5.4,28.17,SE,135,0.0,2.0,63,0.00,,,0.80,meteohub,2013-02-05 12:37:00,
2013-02-05 07:42:00,15.6,5.4,28.17,SE,135,0.0,2.0,63,0.00,,,0.80,meteohub,2013-02-05 12:42:00,
2013-02-05 07:47:00,15.8,5.2,28.17,East,90,2.0,2.0,62,0.00,,,0.80,meteohub,2013-02-05 12:47:00,
2013-02-05 07:52:00,15.8,5.2,28.17,East,90,1.0,2.0,62,0.00,,,0.80,meteohub,2013-02-05 12:52:00,
2013-02-05 07:57:00,15.8,4.8,28.17,East,90,1.0,2.0,61,0.00,,,0.80,meteohub,2013-02-05 12:57:00,
2013-02-05 08:02:00,16.0,4.8,28.17,NE,45,1.0,2.0,61,0.00,,,0.80,meteohub,2013-02-05 13:02:00,
2013-02-05 08:07:00,16.2,5.0,28.17,NE,45,1.0,2.0,61,0.00,,,0.80,meteohub,2013-02-05 13:07:00,
2013-02-05 08:12:00,16.2,5.0,28.17,North,0,2.0,2.0,61,0.00,,,0.80,meteohub,2013-02-05 13:12:00,
2013-02-05 08:17:00,16.3,5.2,28.17,North,0,2.0,2.0,61,0.00,,,0.80,meteohub,2013-02-05 13:17:00,
2013-02-05 08:22:00,16.5,5.4,28.17,East,90,2.0,2.0,61,0.00,,,0.80,meteohub,2013-02-05 13:22:00,
2013-02-05 08:27:00,16.5,5.4,28.17,East,90,2.0,2.0,61,0.00,,,0.80,meteohub,2013-02-05 13:27:00,
2013-02-05 08:32:00,16.7,5.5,28.17,East,90,2.0,2.0,61,0.00,,,0.80,meteohub,2013-02-05 13:32:00,
2013-02-05 08:37:00,16.7,5.5,28.18,SE,135,2.0,3.0,61,0.00,,,0.80,meteohub,2013-02-05 13:37:00,
2013-02-05 08:42:00,16.9,5.4,28.17,East,90,2.0,3.0,60,0.00,,,0.80,meteohub,2013-02-05 13:42:00,
2013-02-05 08:47:00,16.9,5.4,28.18,NE,45,2.0,3.0,60,0.00,,,0.80,meteohub,2013-02-05 13:47:00,
2013-02-05 08:52:00,17.2,5.7,28.18,NE,45,2.0,2.0,60,0.00,,,0.80,meteohub,2013-02-05 13:52:00,
2013-02-05 08:57:00,17.4,5.9,28.18,East,90,2.0,2.0,60,0.00,,,0.80,meteohub,2013-02-05 13:57:00,
2013-02-05 09:02:00,17.6,5.4,28.18,South,180,3.0,3.0,58,0.00,,,0.80,meteohub,2013-02-05 14:02:00,
2013-02-05 09:07:00,17.6,5.4,28.18,SE,135,2.0,3.0,58,0.00,,,0.80,meteohub,2013-02-05 14:07:00,
2013-02-05 09:12:00,17.8,5.2,28.18,North,0,1.0,3.0,57,0.00,,,0.80,meteohub,2013-02-05 14:12:00,
2013-02-05 09:17:00,18.1,5.5,28.18,East,90,2.0,3.0,57,0.00,,,0.80,meteohub,2013-02-05 14:17:00,
2013-02-05 09:22:00,18.3,5.7,28.18,North,0,2.0,3.0,57,0.00,,,0.80,meteohub,2013-02-05 14:22:00,
2013-02-05 09:27:00,18.3,5.2,28.18,North,0,2.0,3.0,56,0.00,,,0.80,meteohub,2013-02-05 14:27:00,
2013-02-05 09:32:00,18.5,5.0,28.18,North,0,2.0,3.0,55,0.00,,,0.80,meteohub,2013-02-05 14:32:00,
2013-02-05 09:37:00,19.0,5.5,28.18,NW,315,2.0,3.0,55,0.00,,,0.80,meteohub,2013-02-05 14:37:00,
2013-02-05 09:42:00,19.2,5.4,28.18,NE,45,2.0,3.0,54,0.00,,,0.80,meteohub,2013-02-05 14:42:00,
2013-02-05 09:47:00,19.9,7.5,28.18,SW,225,1.0,3.0,58,0.00,,,0.80,meteohub,2013-02-05 14:47:00,
2013-02-05 09:52:00,20.3,7.5,28.19,SE,135,1.0,3.0,57,0.00,,,0.80,meteohub,2013-02-05 14:52:00,
2013-02-05 09:57:00,20.7,7.9,28.18,South,180,1.0,2.0,57,0.00,,,0.80,meteohub,2013-02-05 14:57:00,
2013-02-05 10:02:00,20.7,7.0,28.18,SE,135,4.0,4.0,55,0.00,,,0.80,meteohub,2013-02-05 15:02:00,
2013-02-05 10:07:00,20.7,6.6,28.19,SE,135,4.0,4.0,54,0.00,,,0.80,meteohub,2013-02-05 15:07:00,
2013-02-05 10:13:00,20.8,6.8,28.18,South,180,2.0,4.0,54,0.00,,,0.80,meteohub,2013-02-05 15:13:00,
2013-02-05 10:18:00,21.0,7.0,28.18,South,180,3.0,4.0,54,0.00,,,0.80,meteohub,2013-02-05 15:18:00,
2013-02-05 10:23:00,21.0,6.6,28.18,South,180,3.0,4.0,53,0.00,,,0.80,meteohub,2013-02-05 15:23:00,
2013-02-05 10:28:00,21.0,6.6,28.19,SE,135,2.0,4.0,53,0.00,,,0.80,meteohub,2013-02-05 15:28:00,
2013-02-05 10:33:00,21.2,6.3,28.18,SE,135,2.0,4.0,52,0.00,,,0.80,meteohub,2013-02-05 15:33:00,
2013-02-05 10:38:00,21.4,6.4,28.18,East,90,2.0,4.0,52,0.00,,,0.80,meteohub,2013-02-05 15:38:00,
2013-02-05 10:43:00,21.4,6.4,28.18,ESE,113,4.0,4.0,52,0.00,,,0.80,meteohub,2013-02-05 15:43:00,
2013-02-05 10:48:00,21.6,7.2,28.18,East,90,4.0,5.0,53,0.00,,,0.80,meteohub,2013-02-05 15:48:00,
2013-02-05 10:53:00,21.9,7.3,28.18,ESE,113,3.0,5.0,53,0.00,,,0.80,meteohub,2013-02-05 15:53:00,
2013-02-05 10:58:00,22.3,7.7,28.17,SE,135,2.0,6.0,53,0.00,,,0.80,meteohub,2013-02-05 15:58:00,
2013-02-05 11:03:00,22.6,7.7,28.17,SE,135,2.0,6.0,52,0.00,,,0.80,meteohub,2013-02-05 16:03:00,
2013-02-05 11:08:00,23.2,7.7,28.17,ENE,68,4.0,6.0,51,0.00,,,0.80,meteohub,2013-02-05 16:08:00,
2013-02-05 11:14:00,23.7,8.2,28.17,South,180,2.0,5.0,51,0.00,,,0.80,meteohub,2013-02-05 16:14:00,
2013-02-05 11:19:00,23.7,8.2,28.17,North,0,1.0,5.0,51,0.00,,,0.80,meteohub,2013-02-05 16:19:00,
2013-02-05 11:24:00,24.1,8.6,28.17,NE,45,3.0,5.0,51,0.00,,,0.80,meteohub,2013-02-05 16:24:00,
2013-02-05 11:29:00,24.1,8.6,28.17,SE,135,2.0,4.0,51,0.00,,,0.80,meteohub,2013-02-05 16:29:00,
2013-02-05 11:34:00,23.9,7.9,28.16,East,90,3.0,4.0,50,0.00,,,0.80,meteohub,2013-02-05 16:34:00,
2013-02-05 11:39:00,23.9,7.9,28.16,NE,45,1.0,4.0,50,0.00,,,0.80,meteohub,2013-02-05 16:39:00,
2013-02-05 11:44:00,24.6,9.1,28.15,North,0,2.0,4.0,51,0.00,,,0.80,meteohub,2013-02-05 16:44:00,
2013-02-05 11:50:00,25.3,9.3,28.15,South,180,4.0,4.0,50,0.00,,,0.80,meteohub,2013-02-05 16:50:00,
2013-02-05 11:55:00,25.3,8.8,28.14,SE,135,4.0,4.0,49,0.00,,,0.80,meteohub,2013-02-05 16:55:00,
2013-02-05 12:00:00,25.3,8.8,28.14,East,90,4.0,4.0,49,0.00,,,0.80,meteohub,2013-02-05 17:00:00,
2013-02-05 12:05:00,25.0,8.1,28.14,South,180,4.0,5.0,48,0.00,,,0.80,meteohub,2013-02-05 17:05:00,
2013-02-05 12:10:00,25.0,8.1,28.13,South,180,5.0,7.0,48,0.00,,,0.80,meteohub,2013-02-05 17:10:00,
2013-02-05 12:15:00,25.0,8.1,28.13,South,180,5.0,7.0,48,0.00,,,0.80,meteohub,2013-02-05 17:15:00,
2013-02-05 12:20:00,24.8,7.9,28.13,East,90,4.0,7.0,48,0.00,,,0.80,meteohub,2013-02-05 17:20:00,
2013-02-05 12:25:00,24.8,8.4,28.13,SE,135,2.0,7.0,49,0.00,,,0.80,meteohub,2013-02-05 17:25:00,
2013-02-05 12:30:00,25.0,8.6,28.13,SE,135,4.0,7.0,49,0.00,,,0.80,meteohub,2013-02-05 17:30:00,
2013-02-05 12:35:00,25.3,8.8,28.13,South,180,3.0,5.0,49,0.00,,,0.80,meteohub,2013-02-05 17:35:00,
2013-02-05 12:41:00,25.3,8.8,28.13,SE,135,4.0,5.0,49,0.00,,,0.80,meteohub,2013-02-05 17:41:00,
2013-02-05 12:46:00,25.3,8.8,28.12,SSE,158,3.0,5.0,49,0.00,,,0.80,meteohub,2013-02-05 17:46:00,
2013-02-05 12:51:00,25.3,8.8,28.12,South,180,3.0,5.0,49,0.00,,,0.80,meteohub,2013-02-05 17:51:00,
2013-02-05 12:56:00,25.2,8.6,28.12,South,180,8.0,8.0,49,0.00,,,0.80,meteohub,2013-02-05 17:56:00,
2013-02-05 13:01:00,25.0,8.6,28.12,South,180,4.0,8.0,49,0.00,,,0.80,meteohub,2013-02-05 18:01:00,
2013-02-05 13:06:00,24.8,8.4,28.13,South,180,3.0,8.0,49,0.00,,,0.80,meteohub,2013-02-05 18:06:00,
2013-02-05 13:11:00,24.8,8.4,28.12,SE,135,3.0,8.0,49,0.00,,,0.80,meteohub,2013-02-05 18:11:00,
2013-02-05 13:16:00,25.0,8.6,28.12,ESE,113,4.0,6.0,49,0.00,,,0.80,meteohub,2013-02-05 18:16:00,
2013-02-05 13:21:00,25.2,8.6,28.12,South,180,4.0,5.0,49,0.00,,,0.80,meteohub,2013-02-05 18:21:00,
2013-02-05 13:26:00,25.3,8.8,28.12,SE,135,4.0,5.0,49,0.00,,,0.80,meteohub,2013-02-05 18:26:00,
2013-02-05 13:31:00,25.5,9.0,28.12,SE,135,3.0,5.0,49,0.00,,,0.80,meteohub,2013-02-05 18:31:00,
2013-02-05 13:36:00,25.7,9.1,28.12,South,180,5.0,5.0,49,0.00,,,0.80,meteohub,2013-02-05 18:36:00,
2013-02-05 13:42:00,25.7,9.1,28.12,SE,135,5.0,5.0,49,0.00,,,0.80,meteohub,2013-02-05 18:42:00,
2013-02-05 13:47:00,25.9,9.3,28.12,South,180,8.0,8.0,49,0.00,,,0.80,meteohub,2013-02-05 18:47:00,
2013-02-05 13:52:00,25.7,8.8,28.12,South,180,6.0,8.0,48,0.00,,,0.80,meteohub,2013-02-05 18:52:00,
2013-02-05 13:57:00,25.7,8.8,28.11,SE,135,8.0,8.0,48,0.00,,,0.80,meteohub,2013-02-05 18:57:00,
2013-02-05 14:02:00,25.7,8.8,28.11,South,180,5.0,8.0,48,0.00,,,0.80,meteohub,2013-02-05 19:02:00,
2013-02-05 14:07:00,25.7,8.2,28.11,SE,135,4.0,8.0,47,0.00,,,0.80,meteohub,2013-02-05 19:07:00,
2013-02-05 14:12:00,26.1,9.1,28.11,SE,135,4.0,8.0,48,0.00,,,0.80,meteohub,2013-02-05 19:12:00,
2013-02-05 14:17:00,26.1,8.1,28.11,NE,45,4.0,6.0,46,0.00,,,0.80,meteohub,2013-02-05 19:17:00,
2013-02-05 14:22:00,26.6,8.1,28.10,East,90,6.0,6.0,45,0.00,,,0.80,meteohub,2013-02-05 19:22:00,
2013-02-05 14:27:00,26.8,8.2,28.10,East,90,5.0,8.0,45,0.00,,,0.80,meteohub,2013-02-05 19:27:00,
2013-02-05 14:32:00,26.8,7.7,28.10,SE,135,6.0,8.0,44,0.00,,,0.80,meteohub,2013-02-05 19:32:00,
2013-02-05 14:37:00,27.1,8.6,28.10,East,90,7.0,8.0,45,0.00,,,0.80,meteohub,2013-02-05 19:37:00,
2013-02-05 14:42:00,27.0,7.9,28.10,East,90,5.0,7.0,44,0.00,,,0.80,meteohub,2013-02-05 19:42:00,
2013-02-05 14:47:00,26.4,7.9,28.10,East,90,4.0,7.0,45,0.00,,,0.80,meteohub,2013-02-05 19:47:00,
2013-02-05 14:52:00,26.2,7.7,28.10,SE,135,2.0,10.0,45,0.00,,,0.80,meteohub,2013-02-05 19:52:00,
2013-02-05 14:58:00,26.1,7.7,28.10,South,180,5.0,10.0,45,0.00,,,0.80,meteohub,2013-02-05 19:58:00,
2013-02-05 15:03:00,25.9,7.5,28.11,East,90,8.0,10.0,45,0.00,,,0.80,meteohub,2013-02-05 20:03:00,
2013-02-05 15:08:00,25.7,7.3,28.11,SE,135,4.0,10.0,45,0.00,,,0.80,meteohub,2013-02-05 20:08:00,
2013-02-05 15:13:00,25.7,7.7,28.10,SE,135,2.0,8.0,46,0.00,,,0.80,meteohub,2013-02-05 20:13:00,
2013-02-05 15:18:00,25.3,7.0,28.10,SSW,203,2.0,9.0,45,0.00,,,0.80,meteohub,2013-02-05 20:18:00,
2013-02-05 15:23:00,25.3,7.5,28.10,SW,225,4.0,9.0,46,0.00,,,0.80,meteohub,2013-02-05 20:23:00,
2013-02-05 15:28:00,25.3,7.5,28.11,SSE,158,4.0,9.0,46,0.00,,,0.80,meteohub,2013-02-05 20:28:00,
2013-02-05 15:33:00,25.3,7.9,28.11,West,270,5.0,9.0,47,0.00,,,0.80,meteohub,2013-02-05 20:33:00,
2013-02-05 15:38:00,25.3,8.8,28.11,South,180,6.0,9.0,49,0.00,,,0.80,meteohub,2013-02-05 20:38:00,
2013-02-05 15:44:00,25.3,8.8,28.10,South,180,3.0,9.0,49,0.00,,,0.80,meteohub,2013-02-05 20:44:00,
2013-02-05 15:49:00,25.2,8.6,28.09,South,180,4.0,8.0,49,0.00,,,0.80,meteohub,2013-02-05 20:49:00,
2013-02-05 15:54:00,25.0,8.6,28.09,SE,135,4.0,9.0,49,0.00,,,0.80,meteohub,2013-02-05 20:54:00,
2013-02-05 15:59:00,25.0,9.0,28.09,South,180,4.0,9.0,50,0.00,,,0.80,meteohub,2013-02-05 20:59:00,
2013-02-05 16:04:00,24.8,8.8,28.09,SE,135,5.0,9.0,50,0.00,,,0.80,meteohub,2013-02-05 21:04:00,
2013-02-05 16:09:00,24.8,8.8,28.09,East,90,2.0,8.0,50,0.00,,,0.80,meteohub,2013-02-05 21:09:00,
2013-02-05 16:15:00,24.6,9.1,28.10,SE,135,1.0,8.0,51,0.00,,,0.80,meteohub,2013-02-05 21:15:00,
2013-02-05 16:20:00,24.6,9.1,28.09,ESE,113,2.0,7.0,51,0.00,,,0.80,meteohub,2013-02-05 21:20:00,
2013-02-05 16:25:00,24.6,9.1,28.09,SE,135,3.0,6.0,51,0.00,,,0.80,meteohub,2013-02-05 21:25:00,
2013-02-05 16:30:00,24.4,9.0,28.09,SSE,158,3.0,6.0,51,0.00,,,0.80,meteohub,2013-02-05 21:30:00,
2013-02-05 16:35:00,24.4,9.0,28.09,SE,135,2.0,6.0,51,0.00,,,0.80,meteohub,2013-02-05 21:35:00,
2013-02-05 16:40:00,24.4,9.3,28.09,SE,135,2.0,4.0,52,0.00,,,0.80,meteohub,2013-02-05 21:40:00,
2013-02-05 16:45:00,24.4,9.3,28.09,East,90,3.0,4.0,52,0.00,,,0.80,meteohub,2013-02-05 21:45:00,
2013-02-05 16:50:00,24.4,9.3,28.09,East,90,4.0,4.0,52,0.00,,,0.80,meteohub,2013-02-05 21:50:00,
2013-02-05 16:56:00,24.3,9.1,28.09,SE,135,4.0,5.0,52,0.00,,,0.80,meteohub,2013-02-05 21:56:00,
2013-02-05 17:01:00,24.1,9.0,28.09,South,180,3.0,5.0,52,0.00,,,0.80,meteohub,2013-02-05 22:01:00,
2013-02-05 17:06:00,23.9,8.8,28.09,East,90,7.0,7.0,52,0.00,,,0.80,meteohub,2013-02-05 22:06:00,
2013-02-05 17:11:00,23.7,8.6,28.09,South,180,5.0,7.0,52,0.00,,,0.80,meteohub,2013-02-05 22:11:00,
2013-02-05 17:16:00,23.5,8.4,28.09,East,90,6.0,7.0,52,0.00,,,0.80,meteohub,2013-02-05 22:16:00,
2013-02-05 17:21:00,23.4,8.4,28.09,SE,135,3.0,7.0,52,0.00,,,0.80,meteohub,2013-02-05 22:21:00,
2013-02-05 17:26:00,23.2,8.2,28.09,East,90,4.0,6.0,52,0.00,,,0.80,meteohub,2013-02-05 22:26:00,
2013-02-05 17:32:00,23.0,8.1,28.09,SE,135,3.0,7.0,52,0.00,,,0.80,meteohub,2013-02-05 22:32:00,
2013-02-05 17:37:00,23.0,8.1,28.09,SW,225,4.0,9.0,52,0.00,,,0.80,meteohub,2013-02-05 22:37:00,
2013-02-05 17:42:00,22.8,8.2,28.09,SE,135,4.0,9.0,53,0.00,,,0.80,meteohub,2013-02-05 22:42:00,
2013-02-05 17:47:00,22.6,8.1,28.08,East,90,4.0,12.0,53,0.00,,,0.80,meteohub,2013-02-05 22:47:00,
2013-02-05 17:52:00,22.5,7.9,28.09,SE,135,3.0,12.0,53,0.00,,,0.80,meteohub,2013-02-05 22:52:00,
2013-02-05 17:57:00,22.5,8.2,28.09,East,90,5.0,12.0,54,0.00,,,0.80,meteohub,2013-02-05 22:57:00,
2013-02-05 18:02:00,22.5,8.2,28.09,ESE,113,3.0,8.0,54,0.00,,,0.80,meteohub,2013-02-05 23:02:00,
2013-02-05 18:07:00,22.5,8.2,28.09,East,90,4.0,8.0,54,0.00,,,0.80,meteohub,2013-02-05 23:07:00,
2013-02-05 18:12:00,22.3,8.2,28.09,South,180,4.0,8.0,54,0.00,,,0.80,meteohub,2013-02-05 23:12:00,
2013-02-05 18:17:00,22.3,8.2,28.10,SW,225,5.0,8.0,54,0.00,,,0.80,meteohub,2013-02-05 23:17:00,
2013-02-05 18:22:00,22.5,8.2,28.10,WNW,293,2.0,8.0,54,0.00,,,0.80,meteohub,2013-02-05 23:22:00,
2013-02-05 18:28:00,22.5,8.2,28.10,South,180,4.0,8.0,54,0.00,,,0.80,meteohub,2013-02-05 23:28:00,
2013-02-05 18:33:00,22.5,8.8,28.10,SW,225,4.0,8.0,55,0.00,,,0.80,meteohub,2013-02-05 23:33:00,
2013-02-05 18:38:00,22.5,8.8,28.11,NW,315,4.0,5.0,55,0.00,,,0.80,meteohub,2013-02-05 23:38:00,
2013-02-05 18:43:00,22.5,8.8,28.11,SE,135,6.0,6.0,55,0.00,,,0.80,meteohub,2013-02-05 23:43:00,
2013-02-05 18:48:00,22.5,8.8,28.11,SW,225,4.0,7.0,55,0.00,,,0.80,meteohub,2013-02-05 23:48:00,
2013-02-05 18:53:00,22.5,8.8,28.12,South,180,8.0,10.0,55,0.00,,,0.80,meteohub,2013-02-05 23:53:00,
2013-02-05 18:59:00,22.5,8.8,28.12,South,180,6.0,10.0,55,0.00,,,0.80,meteohub,2013-02-05 23:59:00,
2013-02-05 19:04:00,22.5,9.1,28.12,SE,135,4.0,10.0,56,0.00,,,0.80,meteohub,2013-02-06 00:04:00,
2013-02-05 19:09:00,22.5,9.1,28.12,South,180,5.0,10.0,56,0.00,,,0.80,meteohub,2013-02-06 00:09:00,
2013-02-05 19:14:00,22.5,9.1,28.12,SW,225,8.0,8.0,56,0.00,,,0.80,meteohub,2013-02-06 00:14:00,
2013-02-05 19:19:00,22.3,9.3,28.12,South,180,8.0,8.0,57,0.00,,,0.80,meteohub,2013-02-06 00:19:00,
2013-02-05 19:24:00,22.3,9.3,28.12,SE,135,6.0,13.0,57,0.00,,,0.80,meteohub,2013-02-06 00:24:00,
2013-02-05 19:29:00,22.3,9.3,28.12,SE,135,7.0,13.0,57,0.00,,,0.80,meteohub,2013-02-06 00:29:00,
2013-02-05 19:35:00,22.3,9.7,28.12,South,180,5.0,13.0,58,0.00,,,0.80,meteohub,2013-02-06 00:35:00,
2013-02-05 19:40:00,22.3,9.7,28.11,South,180,10.0,10.0,58,0.00,,,0.80,meteohub,2013-02-06 00:40:00,
2013-02-05 19:45:00,22.1,9.5,28.11,South,180,6.0,10.0,58,0.00,,,0.80,meteohub,2013-02-06 00:45:00,
2013-02-05 19:50:00,22.1,10.0,28.11,South,180,6.0,11.0,59,0.00,,,0.80,meteohub,2013-02-06 00:50:00,
2013-02-05 19:55:00,22.1,10.0,28.11,South,180,11.0,11.0,59,0.00,,,0.80,meteohub,2013-02-06 00:55:00,
2013-02-05 20:00:00,22.1,10.4,28.10,South,180,8.0,11.0,60,0.00,,,0.80,meteohub,2013-02-06 01:00:00,
2013-02-05 20:05:00,22.1,10.4,28.10,South,180,4.0,11.0,60,0.00,,,0.80,meteohub,2013-02-06 01:05:00,
2013-02-05 20:11:00,22.1,10.4,28.10,SE,135,5.0,11.0,60,0.00,,,0.80,meteohub,2013-02-06 01:11:00,
2013-02-05 20:16:00,22.1,10.8,28.10,SE,135,6.0,10.0,61,0.00,,,0.80,meteohub,2013-02-06 01:16:00,
2013-02-05 20:21:00,22.1,10.8,28.10,East,90,7.0,9.0,61,0.00,,,0.80,meteohub,2013-02-06 01:21:00,
2013-02-05 20:26:00,22.1,10.8,28.10,SW,225,6.0,9.0,61,0.00,,,0.80,meteohub,2013-02-06 01:26:00,
2013-02-05 20:31:00,22.1,10.8,28.10,SE,135,6.0,9.0,61,0.00,,,0.80,meteohub,2013-02-06 01:31:00,
2013-02-05 20:36:00,22.1,10.8,28.10,SE,135,4.0,8.0,61,0.00,,,0.80,meteohub,2013-02-06 01:36:00,
2013-02-05 20:41:00,22.1,10.8,28.11,SE,135,5.0,8.0,61,0.00,,,0.80,meteohub,2013-02-06 01:41:00,
2013-02-05 20:47:00,22.3,10.9,28.11,South,180,2.0,8.0,61,0.00,,,0.80,meteohub,2013-02-06 01:47:00,
2013-02-05 20:52:00,22.3,10.9,28.11,SE,135,4.0,8.0,61,0.00,,,0.80,meteohub,2013-02-06 01:52:00,
2013-02-05 20:57:00,22.3,10.9,28.11,SE,135,2.0,8.0,61,0.00,,,0.80,meteohub,2013-02-06 01:57:00,
2013-02-05 21:02:00,22.3,11.3,28.11,SW,225,2.0,7.0,62,0.00,,,0.80,meteohub,2013-02-06 02:02:00,
2013-02-05 21:07:00,22.5,11.5,28.10,SSE,158,3.0,6.0,62,0.00,,,0.80,meteohub,2013-02-06 02:07:00,
2013-02-05 21:12:00,22.5,11.5,28.10,South,180,2.0,7.0,62,0.00,,,0.80,meteohub,2013-02-06 02:12:00,
2013-02-05 21:17:00,22.5,11.5,28.11,NE,45,2.0,7.0,62,0.00,,,0.80,meteohub,2013-02-06 02:17:00,
2013-02-05 21:22:00,22.5,11.5,28.11,NE,45,2.0,7.0,62,0.00,,,0.80,meteohub,2013-02-06 02:22:00,
2013-02-05 21:27:00,22.5,11.5,28.11,South,180,4.0,7.0,62,0.00,,,0.80,meteohub,2013-02-06 02:27:00,
2013-02-05 21:32:00,22.5,11.8,28.11,East,90,4.0,7.0,63,0.00,,,0.80,meteohub,2013-02-06 02:32:00,
2013-02-05 21:37:00,22.5,11.8,28.11,North,0,3.0,7.0,63,0.00,,,0.80,meteohub,2013-02-06 02:37:00,
2013-02-05 21:42:00,22.5,11.8,28.11,SE,135,4.0,6.0,63,0.00,,,0.80,meteohub,2013-02-06 02:42:00,
2013-02-05 21:47:00,22.5,11.8,28.11,NNE,23,2.0,6.0,63,0.00,,,0.80,meteohub,2013-02-06 02:47:00,
2013-02-05 21:52:00,22.5,11.8,28.11,SW,225,2.0,6.0,63,0.00,,,0.80,meteohub,2013-02-06 02:52:00,
2013-02-05 21:57:00,22.5,11.8,28.11,East,90,3.0,6.0,63,0.00,,,0.80,meteohub,2013-02-06 02:57:00,
2013-02-05 22:02:00,22.5,11.8,28.11,South,180,2.0,4.0,63,0.00,,,0.80,meteohub,2013-02-06 03:02:00,
2013-02-05 22:08:00,22.5,12.2,28.11,East,90,4.0,4.0,64,0.00,,,0.80,meteohub,2013-02-06 03:08:00,
2013-02-05 22:13:00,22.5,12.2,28.11,East,90,6.0,6.0,64,0.00,,,0.80,meteohub,2013-02-06 03:13:00,
2013-02-05 22:18:00,22.5,12.2,28.11,SE,135,4.0,7.0,64,0.00,,,0.80,meteohub,2013-02-06 03:18:00,
2013-02-05 22:23:00,22.6,12.4,28.11,SE,135,4.0,7.0,64,0.00,,,0.80,meteohub,2013-02-06 03:23:00,
2013-02-05 22:28:00,22.6,12.4,28.11,SE,135,4.0,7.0,64,0.00,,,0.80,meteohub,2013-02-06 03:28:00,
2013-02-05 22:33:00,22.6,12.4,28.11,SE,135,4.0,5.0,64,0.00,,,0.80,meteohub,2013-02-06 03:33:00,
2013-02-05 22:38:00,22.6,12.4,28.11,West,270,2.0,4.0,64,0.00,,,0.80,meteohub,2013-02-06 03:38:00,
2013-02-05 22:44:00,22.6,12.4,28.11,ESE,113,6.0,6.0,64,0.00,,,0.80,meteohub,2013-02-06 03:44:00,
2013-02-05 22:49:00,23.0,12.6,28.11,South,180,2.0,8.0,64,0.00,,,0.80,meteohub,2013-02-06 03:49:00,
2013-02-05 22:54:00,22.8,12.7,28.11,ESE,113,3.0,8.0,65,0.00,,,0.80,meteohub,2013-02-06 03:54:00,
2013-02-05 22:59:00,22.6,12.7,28.11,South,180,3.0,8.0,65,0.00,,,0.80,meteohub,2013-02-06 03:59:00,
2013-02-05 23:04:00,22.6,12.7,28.11,North,0,1.0,8.0,65,0.00,,,0.80,meteohub,2013-02-06 04:04:00,
2013-02-05 23:09:00,22.6,12.7,28.11,East,90,2.0,7.0,65,0.00,,,0.80,meteohub,2013-02-06 04:09:00,
2013-02-05 23:14:00,22.6,12.7,28.12,South,180,2.0,4.0,65,0.00,,,0.80,meteohub,2013-02-06 04:14:00,
2013-02-05 23:19:00,22.6,12.7,28.12,North,0,1.0,4.0,65,0.00,,,0.80,meteohub,2013-02-06 04:19:00,
2013-02-05 23:24:00,22.6,12.7,28.12,East,90,2.0,3.0,65,0.00,,,0.80,meteohub,2013-02-06 04:24:00,
2013-02-05 23:30:00,22.6,12.7,28.12,East,90,2.0,3.0,65,0.00,,,0.80,meteohub,2013-02-06 04:30:00,
2013-02-05 23:35:00,22.8,13.1,28.12,SW,225,2.0,2.0,66,0.00,,,0.80,meteohub,2013-02-06 04:35:00,
2013-02-05 23:40:00,22.8,13.1,28.12,East,90,3.0,4.0,66,0.00,,,0.80,meteohub,2013-02-06 04:40:00,
2013-02-05 23:45:00,23.0,12.9,28.12,SE,135,1.0,4.0,65,0.00,,,0.80,meteohub,2013-02-06 04:45:00,
2013-02-05 23:50:00,23.0,12.6,28.12,SE,135,3.0,3.0,64,0.00,,,0.80,meteohub,2013-02-06 04:50:00,
2013-02-05 23:55:00,23.0,12.6,28.12,West,270,0.0,3.0,64,0.00,,,0.80,meteohub,2013-02-06 04:55:00,